Location: Cran-Gévrier
(45.9039°N, 6.1012°E)
Time: 10:53:21
(UTC+00:00)

Cosmos 2184 Rocket - Pass Details

Date: 09 February 2023
Orbit: 958 x 1003 km, 82.9° (Epoch: 20 March)

Event Time Altitude Azimuth Distance (km) Brightness Sun altitude
Rises 18:57:19 0° 355° (N) 3,698 7.1 -22.1°
Reaches altitude 10° 18:59:57 10° 0° (N) 2,739 6.4 -22.6°
Maximum altitude 19:06:02 51° 76° (ENE) 1,210 4.1 -23.6°
Enters shadow 19:06:21 50° 86° (E) 1,217 4.1 -23.7°
